TimeSAST,TemperatureF,Dew PointF,Humidity,Sea Level PressureIn,VisibilityMPH,Wind Direction,Wind SpeedMPH,Gust SpeedMPH,PrecipitationIn,Events,Conditions,WindDirDegrees,DateUTC
12:00 AM,57.2,55.4,94,30.15,-9999.0,NNW,4.6,-,N/A,,Clear,340,2013-03-10 22:00:00
1:00 AM,57.2,55.4,94,30.15,-9999.0,NNW,4.6,-,N/A,,Clear,340,2013-03-10 23:00:00
2:00 AM,57,54,84,30.15,6,North,2.3,,,,,350,2013-03-11 00:00:00
2:00 AM,57.2,53.6,88,30.15,-9999.0,North,3.5,-,N/A,,Clear,350,2013-03-11 00:00:00
3:00 AM,55.4,51.8,88,30.12,-9999.0,Variable,2.3,-,N/A,,Clear,0,2013-03-11 01:00:00
4:00 AM,55.4,53.6,94,30.12,-9999.0,North,3.5,-,N/A,,Clear,10,2013-03-11 02:00:00
5:00 AM,56,54,89,30.13,12,North,3.5,,,,,10,2013-03-11 03:00:00
5:00 AM,55.4,53.6,94,30.12,-9999.0,North,3.5,-,N/A,,Clear,10,2013-03-11 03:00:00
6:00 AM,53.6,51.8,94,30.12,-9999.0,NNW,3.5,-,N/A,,Clear,340,2013-03-11 04:00:00
7:00 AM,55.4,51.8,88,30.12,-9999.0,North,3.5,-,N/A,,Clear,350,2013-03-11 05:00:00
8:00 AM,59.0,57.2,94,30.12,-9999.0,Variable,2.3,-,N/A,,Clear,0,2013-03-11 06:00:00
9:00 AM,66.2,57.2,73,30.12,-9999.0,Variable,2.3,-,N/A,,Clear,0,2013-03-11 07:00:00
10:00 AM,71.6,55.4,57,30.09,-9999.0,ESE,3.5,-,N/A,,Clear,120,2013-03-11 08:00:00
11:00 AM,74,56,43,30.11,12,ESE,5.8,,,,,120,2013-03-11 09:00:00
11:00 AM,73.4,55.4,53,30.09,-9999.0,ESE,5.8,-,N/A,,Clear,120,2013-03-11 09:00:00
12:00 PM,75.2,57.2,53,30.06,-9999.0,SE,6.9,-,N/A,,Clear,130,2013-03-11 10:00:00
1:00 PM,75.2,59.0,57,30.06,-9999.0,SE,8.1,-,N/A,,Clear,130,2013-03-11 11:00:00
2:00 PM,59,58,94,30.05,12,ESE,9.2,,,,,120,2013-03-11 12:00:00
2:00 PM,77.0,57.2,50,30.04,-9999.0,ESE,8.1,-,N/A,,Clear,120,2013-03-11 12:00:00
3:00 PM,75.2,62.6,65,30.01,-9999.0,ESE,13.8,-,N/A,,Clear,120,2013-03-11 13:00:00
4:00 PM,75.2,64.4,69,30.01,-9999.0,ESE,13.8,-,N/A,,Clear,110,2013-03-11 14:00:00
5:00 PM,74,65,66,30.00,12,East,13.8,,,,,100,2013-03-11 15:00:00
5:00 PM,73.4,64.4,73,29.98,-9999.0,ESE,13.8,-,N/A,,Clear,110,2013-03-11 15:00:00
6:00 PM,71.6,64.4,78,29.98,-9999.0,ESE,11.5,-,N/A,,Clear,110,2013-03-11 16:00:00
7:00 PM,68.0,64.4,88,29.98,-9999.0,ESE,11.5,-,N/A,,Clear,120,2013-03-11 17:00:00
8:00 PM,67,63,84,29.99,12,ENE,4.6,,,,,70,2013-03-11 18:00:00
8:00 PM,66.2,62.6,88,29.98,-9999.0,East,5.8,-,N/A,,Clear,80,2013-03-11 18:00:00
9:00 PM,66.2,62.6,88,29.98,5.0,ESE,3.5,-,N/A,,Unknown,110,2013-03-11 19:00:00
10:00 PM,64.4,60.8,88,29.98,4.3,NNW,3.5,-,N/A,,Unknown,340,2013-03-11 20:00:00
11:00 PM,64.4,60.8,88,29.95,5.0,North,3.5,-,N/A,,Mostly Cloudy,350,2013-03-11 21:00:00